GW1629 Weather Reports


time (UTC)temp
C
wind
direction
speed
KPH
gust
KPH
rain 1hr
cm
rain 24hr
cm
rain mn
cm
humidity
%
barometer
mb
20260507232522 6 0.0 0.0 0.00 0.00 0.00 29 1016.5
20260507231523 6 0.0 0.0 0.00 0.00 0.00 27 1016.5
20260507230518 6 0.0 0.0 0.00 0.00 0.00 29 1016.5
20260507225543 6 0.0 0.0 0.00 0.00 0.00 30 1016.6
20260507224537 6 0.0 0.0 0.00 0.00 0.00 31 1016.6
20260507223522 6 0.0 0.0 0.00 0.00 0.00 31 1016.7
20260507222519 6 0.0 0.0 0.00 0.00 0.00 32 1017.0
20260507221524 6 0.0 0.0 0.00 0.00 0.00 35 1016.9
20260507220520 6 0.0 0.0 0.00 0.00 0.00 37 1016.7
20260507215516 6 0.0 0.0 0.00 0.00 0.00 37 1017.0
20260507214525 6 0.0 0.0 0.00 0.00 0.00 39 1016.8
20260507213517 6 0.0 0.0 0.00 0.00 0.00 40 1016.5
20260507212525 7 0.0 0.0 0.00 0.00 0.00 43 1016.5
20260507211543 7 0.0 0.0 0.00 0.00 0.00 48 1016.5
20260507210536 7 0.0 0.0 0.00 0.00 0.00 50 1016.5
20260507205524 7 0.0 0.0 0.00 0.00 0.00 55 1016.5
20260507204520 7 0.0 0.0 0.00 0.00 0.00 63 1016.5
20260507203516 7 0.0 0.0 0.00 0.00 0.00 70 1016.5
20260507202524 7 0.0 0.0 0.00 0.00 0.00 72 1016.5
20260507201519 7 0.0 0.0 0.00 0.00 0.00 75 1016.5
20260507200523 7 0.0 0.0 0.00 0.00 0.00 84 1016.5
20260507195519 8 0.0 0.0 0.00 0.00 0.00 90 1016.5
20260507194520 8 0.0 0.0 0.00 0.00 0.00 94 1016.5
20260507193545 8 0.0 0.0 0.00 0.00 0.00 97 1016.5
20260507192518 8 0.0 0.0 0.00 0.00 0.00 97 1016.5
20260507191516 9 0.0 0.0 0.00 0.00 0.00 97 1016.2
20260507190540 10 0.0 0.0 0.00 0.00 0.00 97 1016.0
20260507185517 10 0.0 0.0 0.00 0.00 0.00 97 1015.7
20260507184525 11 0.0 0.0 0.00 0.00 0.00 97 1015.5
20260507183519 11 0.0 0.0 0.00 0.00 0.00 97 1015.5
20260507182517 12 0.0 0.0 0.00 0.00 0.00 97 1015.5
20260507181522 12 0.0 0.0 0.00 0.00 0.00 97 1015.5
20260507180517 13 0.0 0.0 0.00 0.00 0.00 97 1015.5
20260507175523 14 0.0 0.0 0.00 0.00 0.00 97 1015.5
20260507174520 16 0.0 0.0 0.00 0.00 0.00 97 1015.5
20260507173516 16 135 0.0 4.8 0.00 0.00 0.00 97 1015.5
20260507172523 15 135 0.0 3.2 0.00 0.00 0.00 97 1015.5
20260507171522 15 121 0.0 3.2 0.00 0.00 0.00 97 1015.5
20260507170516 14 135 0.0 4.8 0.00 0.00 0.00 97 1015.5
20260507165522 14 0.0 0.0 0.00 0.00 0.00 97 1015.5
20260507164521 15 0.0 0.0 0.00 0.00 0.00 97 1015.5
20260507163705 15 135 0.0 8.0 0.00 0.00 0.00 97 1015.5
20260507162518 16 139 1.6 6.4 0.00 0.00 0.00 97 1015.5
20260507161517 15 158 0.0 4.8 0.00 0.00 0.00 97 1015.5
20260507160522 16 113 0.0 3.2 0.00 0.00 0.00 97 1015.5
20260507155516 15 0.0 0.0 0.00 0.00 0.00 97 1015.5
20260507154521 16 0.0 0.0 0.00 0.00 0.00 97 1015.5
20260507153518 16 158 0.0 9.7 0.00 0.00 0.00 97 1015.5
20260507152522 17 166 1.6 6.4 0.00 0.00 0.00 97 1015.1
20260507151539 18 0.0 0.0 0.00 0.00 0.00 97 1015.5
20260507150524 17 180 0.0 4.8 0.00 0.00 0.00 97 1015.4
20260507145523 18 113 0.0 4.8 0.00 0.00 0.00 97 1015.5
20260507144519 17 140 1.6 8.0 0.00 0.00 0.00 97 1015.5
20260507143525 17 155 1.6 12.9 0.00 0.00 0.00 97 1015.5
20260507142519 17 147 3.2 12.9 0.00 0.00 0.00 97 1015.5
20260507141521 17 147 1.6 8.0 0.00 0.00 0.00 97 1015.5
20260507140524 17 158 0.0 9.7 0.00 0.00 0.00 97 1015.5
20260507135519 17 160 3.2 9.7 0.00 0.00 0.00 97 1015.5
20260507134519 18 136 1.6 6.4 0.00 0.00 0.00 97 1015.5
20260507133522 18 114 6.4 12.9 0.00 0.00 0.00 97 1015.5
20260507132516 18 143 4.8 11.3 0.00 0.00 0.00 97 1015.5
20260507131516 18 161 6.4 20.9 0.00 0.00 0.00 97 1015.5
20260507130520 18 145 3.2 14.5 0.00 0.00 0.00 97 1015.6
20260507125524 18 125 6.4 12.9 0.00 0.00 0.00 97 1015.5
20260507124522 18 149 3.2 9.7 0.00 0.00 0.00 97 1015.5
20260507123526 18 148 3.2 12.9 0.00 0.00 0.00 97 1015.5
20260507122523 18 118 1.6 9.7 0.00 0.00 0.00 97 1015.5
20260507121522 16 142 1.6 6.4 0.00 0.00 0.00 97 1015.5
20260507120515 17 134 0.0 4.8 0.00 0.00 0.00 97 1015.5
20260507115522 18 141 0.0 4.8 0.00 0.00 0.00 97 1015.5
20260507114519 18 170 1.6 6.4 0.00 0.00 0.00 97 1015.5
20260507113521 17 158 0.0 6.4 0.00 0.00 0.00 97 1015.5
20260507112521 18 158 0.0 6.4 0.00 0.00 0.00 97 1015.5
20260507111536 19 152 4.8 12.9 0.00 0.00 0.00 97 1015.5
20260507110521 19 147 1.6 9.7 0.00 0.00 0.00 97 1015.5
20260507105517 20 150 1.6 8.0 0.00 0.00 0.00 97 1015.5
20260507104517 20 121 1.6 8.0 0.00 0.00 0.00 97 1015.6
20260507103521 18 158 0.0 3.2 0.00 0.00 0.00 96 1015.7
20260507102518 20 148 1.6 3.2 0.00 0.00 0.00 96 1015.9
20260507101523 20 37 0.0 6.4 0.00 0.00 0.00 96 1015.9
20260507100538 20 338 0.0 6.4 0.00 0.00 0.00 96 1015.9
20260507095517 19 135 0.0 4.8 0.00 0.00 0.00 96 1015.9
20260507094523 18 119 1.6 6.4 0.00 0.00 0.00 95 1015.8
20260507093518 19 161 1.6 4.8 0.00 0.00 0.00 96 1015.5
20260507092524 18 135 0.0 3.2 0.00 0.00 0.00 96 1015.5
20260507091522 18 0.0 0.0 0.00 0.00 0.00 95 1015.5
20260507090525 18 216 0.0 6.4 0.00 0.00 0.00 95 1015.5
20260507085521 17 135 0.0 3.2 0.00 0.00 0.00 96 1015.5
20260507084519 17 133 1.6 9.7 0.00 0.00 0.00 96 1015.5
20260507083523 16 83 3.2 8.0 0.00 0.00 0.00 97 1015.5
20260507082516 17 67 1.6 6.4 0.00 0.00 0.00 97 1015.5
20260507081517 16 154 0.0 6.4 0.00 0.00 0.00 97 1015.5
20260507080521 16 136 4.8 12.9 0.00 0.00 0.00 97 1015.4
20260507075518 16 143 1.6 8.0 0.00 0.00 0.00 97 1015.4
20260507074517 15 135 1.6 6.4 0.00 0.00 0.00 97 1015.2
20260507073521 15 151 3.2 9.7 0.00 0.00 0.00 97 1015.2
20260507072518 15 124 3.2 8.0 0.00 0.00 0.00 97 1015.0
20260507071522 15 135 3.2 6.4 0.00 0.00 0.00 97 1014.5
20260507070516 15 135 0.0 6.4 0.00 0.00 0.00 97 1014.5
20260507065524 15 0.0 0.0 0.00 0.00 0.00 97 1014.5
20260507064518 14 0.0 0.0 0.00 0.00 0.00 97 1014.5
20260507063523 13 0.0 0.0 0.00 0.00 0.00 97 1014.5
20260507062544 12 0.0 0.0 0.00 0.00 0.00 97 1014.5
20260507061519 11 0.0 0.0 0.00 0.00 0.00 97 1014.4
20260507060524 10 0.0 0.0 0.00 0.00 0.00 97 1014.5
20260507055522 8 0.0 0.0 0.00 0.00 0.00 97 1014.5
20260507054536 7 0.0 0.0 0.00 0.10 0.00 97 1014.5
20260507053519 6 0.0 0.0 0.00 0.10 0.00 90 1014.2
20260507052517 4 0.0 0.0 0.00 0.10 0.00 70 1013.9
20260507051516 3 0.0 0.0 0.00 0.20 0.00 69 1013.6
20260507050521 3 0.0 0.0 0.00 0.20 0.00 71 1013.6
20260507045525 3 0.0 0.0 0.00 0.30 0.00 67 1013.5
20260507044521 3 0.0 0.0 0.00 0.30 0.00 73 1013.5
20260507043515 3 0.0 0.0 0.00 0.30 0.00 76 1013.5
20260507042518 3 0.0 0.0 0.00 0.30 0.00 79 1013.5
20260507041519 3 0.0 0.0 0.00 0.30 0.00 82 1013.5
20260507040556 3 0.0 0.0 0.00 0.30 0.00 85 1013.5
20260507035517 3 0.0 0.0 0.00 0.30 0.00 88 1013.5
20260507034521 3 0.0 0.0 0.00 0.30 0.00 90 1013.5
20260507033605 4 0.0 0.0 0.00 0.30 0.00 93 1013.5
20260507032543 4 0.0 0.0 0.00 0.30 0.00 95 1013.5
20260507031518 4 0.0 0.0 0.00 0.30 0.00 95 1013.5
20260507030523 4 0.0 0.0 0.00 0.30 0.00 97 1013.5
20260507025521 5 0.0 0.0 0.00 0.30 0.00 97 1013.5
20260507024516 5 0.0 0.0 0.00 0.30 0.00 97 1013.5
20260507023521 5 0.0 0.0 0.00 0.30 0.00 97 1013.5
20260507022517 5 0.0 0.0 0.00 0.41 0.00 97 1013.5
20260507021524 5 0.0 0.0 0.00 0.41 0.00 97 1013.5
20260507020520 5 0.0 0.0 0.00 0.41 0.00 97 1013.5
20260507015518 6 0.0 0.0 0.00 0.64 0.00 97 1013.5
20260507014520 6 0.0 0.0 0.00 0.84 0.00 97 1013.5
20260507013516 6 0.0 0.0 0.00 0.94 0.00 97 1013.5
20260507012516 7 0.0 0.0 0.00 0.94 0.00 97 1013.5
20260507011559 7 0.0 0.0 0.00 0.94 0.00 97 1013.5
20260507010526 7 0.0 0.0 0.00 0.94 0.00 97 1013.5
20260507005540 7 0.0 0.0 0.00 0.94 0.00 97 1013.5
20260507004518 8 0.0 0.0 0.00 0.94 0.00 97 1013.5
20260507003524 8 158 1.6 11.3 0.00 0.94 0.00 97 1013.5
20260507002522 7 155 1.6 11.3 0.00 0.94 0.00 97 1013.5
20260507001516 8 0.0 0.0 0.00 0.94 0.00 97 1013.5
20260507000522 8 0.0 0.0 0.00 0.94 0.00 97 1013.5
20260506235516 9 0.0 0.0 0.00 0.94 0.00 97 1013.5
20260506234536 10 119 3.2 9.7 0.00 0.94 0.00 97 1013.5
20260506233540 10 204 1.6 12.9 0.00 0.94 0.00 97 1013.5